TimeEST,TemperatureF,Dew PointF,Humidity,Sea Level PressureIn,VisibilityMPH,Wind Direction,Wind SpeedMPH,Gust SpeedMPH,PrecipitationIn,Events,Conditions,WindDirDegrees,DateUTC
12:54 AM,12.0,8.1,84,30.41,10.0,Calm,Calm,-,N/A,,Clear,0,2013-02-10 05:54:00
1:54 AM,10.0,8.1,92,30.40,10.0,North,4.6,-,N/A,,Clear,350,2013-02-10 06:54:00
2:54 AM,10.0,6.1,84,30.41,10.0,Calm,Calm,-,N/A,,Clear,0,2013-02-10 07:54:00
3:19 AM,10.4,6.8,85,30.33,10.0,Calm,Calm,-,N/A,,Scattered Clouds,0,2013-02-10 08:19:00
3:26 AM,10.4,6.8,85,30.33,1.5,Calm,Calm,-,N/A,,Mostly Cloudy,0,2013-02-10 08:26:00
3:34 AM,10.4,8.6,92,30.33,0.5,Calm,Calm,-,N/A,Fog,Light Freezing Fog,0,2013-02-10 08:34:00
3:39 AM,10.4,8.6,92,30.32,2.0,Calm,Calm,-,N/A,,Scattered Clouds,0,2013-02-10 08:39:00
3:46 AM,8.6,6.8,92,30.32,10.0,North,4.6,-,N/A,,Scattered Clouds,10,2013-02-10 08:46:00
3:54 AM,6.1,3.9,91,30.40,10.0,North,3.5,-,N/A,,Partly Cloudy,360,2013-02-10 08:54:00
4:54 AM,5.0,3.0,92,30.40,10.0,Calm,Calm,-,N/A,,Clear,0,2013-02-10 09:54:00
5:54 AM,8.1,5.0,87,30.40,10.0,NE,3.5,-,N/A,,Clear,40,2013-02-10 10:54:00
6:54 AM,3.9,1.0,88,30.42,10.0,North,6.9,-,N/A,,Clear,10,2013-02-10 11:54:00
7:54 AM,5.0,1.9,87,30.43,10.0,NNE,5.8,-,N/A,,Clear,30,2013-02-10 12:54:00
8:54 AM,10.9,8.1,88,30.43,10.0,NNE,4.6,-,N/A,,Clear,30,2013-02-10 13:54:00
9:54 AM,16.0,12.0,84,30.40,10.0,NE,8.1,-,N/A,,Clear,40,2013-02-10 14:54:00
10:54 AM,23.0,14.0,68,30.38,10.0,NE,5.8,-,N/A,,Clear,50,2013-02-10 15:54:00
11:54 AM,28.9,14.0,54,30.34,10.0,NNE,5.8,-,N/A,,Clear,30,2013-02-10 16:54:00
12:54 PM,35.1,15.1,44,30.31,10.0,East,4.6,-,N/A,,Clear,80,2013-02-10 17:54:00
1:54 PM,37.0,15.1,41,30.28,10.0,East,8.1,-,N/A,,Clear,90,2013-02-10 18:54:00
2:54 PM,37.9,16.0,41,30.24,10.0,East,9.2,-,0.00,,Clear,100,2013-02-10 19:54:00
3:54 PM,37.0,16.0,42,30.25,10.0,SE,6.9,-,N/A,,Overcast,140,2013-02-10 20:54:00
4:54 PM,37.0,17.1,44,30.24,10.0,SE,5.8,-,N/A,,Mostly Cloudy,140,2013-02-10 21:54:00
5:54 PM,37.0,17.1,44,30.23,10.0,SSE,5.8,-,N/A,,Overcast,150,2013-02-10 22:54:00
6:54 PM,35.1,18.0,50,30.22,10.0,Variable,3.5,-,N/A,,Overcast,0,2013-02-10 23:54:00
7:54 PM,35.1,17.1,48,30.20,10.0,SE,8.1,-,N/A,,Overcast,130,2013-02-11 00:54:00
8:54 PM,35.1,16.0,46,30.19,10.0,Variable,3.5,-,N/A,,Overcast,0,2013-02-11 01:54:00
9:54 PM,35.1,16.0,46,30.16,10.0,Calm,Calm,-,N/A,,Scattered Clouds,0,2013-02-11 02:54:00
10:54 PM,35.1,16.0,46,30.14,10.0,SE,5.8,-,N/A,,Overcast,130,2013-02-11 03:54:00
11:54 PM,36.0,17.1,46,30.10,10.0,Variable,4.6,-,N/A,,Overcast,0,2013-02-11 04:54:00